Precipitable_Water
0.25 0.17 0.15 0.13 0.13 0.14 0.16 0.17 0.17 0.18 0.18 0.18 0.17 0.17 0.16 0.14 0.15 0.16 0.18 0.18 0.19 0.18 0.18 0.18 0.21 0.21 0.27 0.34 0.38 0.40 0.47 0.67 0.65 0.69 0.75 0.81 0.85 0.89 0.91 0.96 1.00 0.99 1.00 1.14 1.21 1.32 1.36 1.35 1.33 1.32 1.37 1.42 1.43 1.41 1.38 1.35 1.34 1.32 1.31 1.28 1.25 1.28 1.29 1.26 1.20 1.17 1.15 1.10 1.13 1.17 1.16 1.11 1.14 1.15 1.22 1.26 1.31 1.33 1.32 1.32 1.32 1.30 1.30 1.29 1.27 1.27
0.24 0.17 0.15 0.16 0.16 0.16 0.17 0.18 0.19 0.19 0.19 0.18 0.18 0.18 0.17 0.16 0.14 0.15 0.17 0.19 0.20 0.18 0.18 0.19 0.21 0.20 0.36 0.40 0.45 0.44 0.52 0.63 0.64 0.72 0.74 0.79 0.86 0.89 0.89 0.95 0.99 1.05 1.14 1.12 1.16 1.29 1.31 1.26 1.29 1.30 1.36 1.31 1.30 1.28 1.35 1.37 1.30 1.31 1.31 1.28 1.27 1.28 1.26 1.27 1.26 1.25 1.25 1.25 1.20 1.15 1.12 1.13 1.15 1.16 1.15 1.16 1.24 1.27 1.30 1.30 1.30 1.31 1.32 1.31 1.29 1.28
0.18 0.15 0.16 0.20 0.19 0.18 0.18 0.18 0.19 0.19 0.18 0.19 0.18 0.19 0.18 0.17 0.16 0.17 0.18 0.19 0.20 0.19 0.18 0.19 0.20 0.21 0.24 0.35 0.41 0.43 0.46 0.70 0.69 0.75 0.78 0.78 0.82 0.87 0.91 0.96 1.00 1.05 1.08 1.11 1.12 1.25 1.31 1.24 1.27 1.28 1.25 1.26 1.27 1.30 1.30 1.35 1.35 1.32 1.30 1.29 1.27 1.25 1.26 1.25 1.27 1.26 1.25 1.26 1.28 1.22 1.19 1.18 1.17 1.25 1.23 1.20 1.22 1.25 1.24 1.26 1.28 1.30 1.30 1.29 1.28 1.29
0.16 0.16 0.20 0.22 0.21 0.18 0.19 0.19 0.18 0.19 0.18 0.18 0.18 0.17 0.17 0.19 0.16 0.13 0.17 0.19 0.20 0.18 0.17 0.19 0.19 0.22 0.25 0.32 0.36 0.45 0.58 0.75 0.81 0.83 0.83 0.83 0.81 0.85 0.93 1.00 1.00 1.03 1.05 1.09 1.21 1.27 1.22 1.16 1.18 1.17 1.16 1.18 1.22 1.21 1.23 1.26 1.27 1.30 1.30 1.30 1.27 1.26 1.26 1.25 1.28 1.26 1.25 1.25 1.27 1.27 1.24 1.23 1.18 1.11 1.15 1.18 1.23 1.22 1.23 1.21 1.26 1.28 1.28 1.28 1.26 1.28
0.17 0.19 0.24 0.24 0.23 0.20 0.19 0.21 0.18 0.17 0.15 0.17 0.18 0.17 0.18 0.19 0.18 0.16 0.17 0.18 0.20 0.19 0.20 0.21 0.20 0.22 0.26 0.32 0.36 0.58 0.67 0.74 0.81 0.86 0.87 0.91 0.92 0.95 1.02 1.08 1.11 1.05 1.05 1.10 1.16 1.19 1.14 1.09 1.10 1.09 1.12 1.15 1.12 1.15 1.16 1.18 1.20 1.22 1.24 1.27 1.29 1.29 1.28 1.28 1.28 1.28 1.25 1.21 1.17 1.19 1.21 1.21 1.18 1.19 1.17 1.14 1.15 1.20 1.22 1.23 1.24 1.25 1.29 1.28 1.26 1.28
0.22 0.24 0.24 0.24 0.23 0.23 0.21 0.19 0.18 0.15 0.13 0.15 0.18 0.18 0.19 0.19 0.20 0.18 0.20 0.18 0.18 0.18 0.20 0.21 0.20 0.23 0.33 0.35 0.35 0.60 0.67 0.69 0.81 0.79 0.84 0.90 0.93 0.97 0.98 1.04 1.11 1.10 1.12 1.12 1.15 1.15 1.10 1.07 1.09 1.10 1.10 1.07 1.08 1.09 1.12 1.18 1.19 1.20 1.21 1.23 1.23 1.23 1.21 1.20 1.19 1.18 1.14 1.11 1.09 1.09 1.05 1.03 1.06 1.05 1.08 1.05 1.06 1.13 1.14 1.16 1.24 1.27 1.29 1.28 1.27 1.27
0.23 0.27 0.25 0.22 0.23 0.22 0.20 0.18 0.17 0.16 0.13 0.13 0.15 0.19 0.20 0.20 0.20 0.21 0.21 0.19 0.16 0.15 0.19 0.24 0.19 0.26 0.38 0.36 0.41 0.57 0.66 0.64 0.76 0.79 0.84 0.89 0.94 1.01 1.03 1.04 1.03 1.05 1.08 1.14 1.18 1.17 1.10 1.08 1.07 1.07 1.06 1.06 1.04 1.08 1.15 1.18 1.20 1.21 1.22 1.22 1.23 1.23 1.21 1.19 1.17 1.18 1.18 1.15 1.16 1.14 1.13 1.12 1.10 1.07 1.11 1.18 1.22 1.22 1.24 1.23 1.21 1.22 1.25 1.26 1.25 1.27
0.23 0.26 0.25 0.24 0.22 0.21 0.19 0.16 0.16 0.16 0.14 0.11 0.17 0.19 0.21 0.21 0.20 0.20 0.22 0.21 0.19 0.21 0.23 0.29 0.24 0.25 0.29 0.36 0.47 0.55 0.61 0.65 0.68 0.76 0.84 0.90 0.94 0.99 1.01 1.02 1.00 1.03 1.10 1.14 1.14 1.15 1.13 1.07 1.03 0.99 1.02 1.02 1.02 1.06 1.08 1.09 1.12 1.13 1.16 1.20 1.21 1.22 1.22 1.21 1.22 1.21 1.22 1.19 1.20 1.19 1.18 1.19 1.18 1.15 1.15 1.21 1.25 1.28 1.26 1.23 1.22 1.22 1.22 1.25 1.28 1.29
0.21 0.23 0.25 0.22 0.21 0.19 0.17 0.15 0.16 0.17 0.15 0.13 0.17 0.20 0.22 0.22 0.21 0.22 0.24 0.21 0.22 0.20 0.21 0.27 0.33 0.23 0.25 0.33 0.45 0.50 0.52 0.60 0.65 0.73 0.82 0.88 0.93 0.94 0.97 0.98 0.97 1.01 1.07 1.12 1.09 1.08 1.03 0.99 0.99 1.00 0.99 1.01 1.03 1.03 1.03 1.05 1.08 1.10 1.13 1.15 1.17 1.18 1.19 1.20 1.20 1.20 1.21 1.21 1.20 1.18 1.17 1.13 1.18 1.19 1.19 1.22 1.23 1.21 1.24 1.18 1.20 1.18 1.19 1.22 1.26 1.28
0.21 0.23 0.26 0.25 0.21 0.17 0.17 0.18 0.17 0.17 0.15 0.16 0.19 0.23 0.24 0.24 0.23 0.25 0.25 0.23 0.22 0.20 0.20 0.24 0.27 0.22 0.27 0.36 0.41 0.46 0.50 0.56 0.62 0.74 0.81 0.87 0.91 0.95 0.94 0.95 0.96 1.02 1.04 1.08 1.09 1.05 1.00 0.98 0.98 1.00 1.00 0.99 0.99 1.01 1.02 1.03 1.06 1.07 1.09 1.10 1.11 1.10 1.14 1.17 1.17 1.18 1.18 1.19 1.18 1.15 1.12 1.09 1.10 1.14 1.16 1.17 1.14 1.15 1.19 1.14 1.14 1.15 1.16 1.18 1.21 1.27
0.23 0.23 0.29 0.26 0.21 0.20 0.19 0.19 0.18 0.18 0.19 0.20 0.19 0.22 0.22 0.22 0.24 0.25 0.27 0.23 0.21 0.18 0.21 0.26 0.28 0.24 0.23 0.33 0.37 0.39 0.44 0.61 0.67 0.74 0.79 0.83 0.86 0.92 0.94 0.94 0.96 0.98 1.00 1.01 0.99 0.96 0.96 0.97 0.96 0.98 0.94 0.95 0.97 1.00 1.01 1.01 1.03 1.06 1.06 1.06 1.05 1.06 1.09 1.12 1.13 1.14 1.14 1.15 1.15 1.11 1.08 1.06 1.05 1.08 1.09 1.06 1.06 1.08 1.09 1.08 1.10 1.13 1.16 1.20 1.23 1.29
0.25 0.24 0.24 0.26 0.25 0.24 0.21 0.19 0.19 0.20 0.21 0.22 0.18 0.20 0.21 0.20 0.23 0.24 0.24 0.23 0.17 0.16 0.18 0.24 0.26 0.24 0.18 0.30 0.40 0.47 0.58 0.62 0.63 0.63 0.69 0.74 0.79 0.85 0.89 0.93 0.95 0.93 0.91 0.91 0.89 0.87 0.89 0.89 0.91 0.93 0.90 0.91 0.93 0.94 0.95 0.98 1.01 1.02 1.03 1.03 1.01 1.01 1.04 1.07 1.08 1.09 1.08 1.09 1.08 1.07 1.07 1.05 1.05 1.04 1.02 0.98 0.97 1.01 1.01 1.04 1.07 1.13 1.15 1.18 1.22 1.27
0.23 0.22 0.21 0.24 0.27 0.25 0.21 0.19 0.19 0.20 0.23 0.21 0.21 0.20 0.17 0.17 0.19 0.18 0.19 0.18 0.17 0.16 0.18 0.21 0.25 0.24 0.22 0.38 0.41 0.51 0.60 0.68 0.69 0.67 0.68 0.71 0.76 0.82 0.89 0.92 0.91 0.89 0.87 0.85 0.83 0.83 0.84 0.84 0.84 0.85 0.86 0.89 0.89 0.91 0.94 0.96 0.99 1.00 1.00 1.00 0.98 0.98 1.00 1.02 1.03 1.02 1.02 1.01 1.02 1.03 1.03 1.02 1.01 0.99 0.98 0.97 0.97 1.02 1.00 1.01 1.02 1.05 1.06 1.14 1.14 1.19
0.22 0.25 0.23 0.23 0.26 0.26 0.23 0.17 0.18 0.17 0.20 0.18 0.18 0.18 0.16 0.16 0.15 0.15 0.15 0.18 0.17 0.18 0.21 0.20 0.22 0.21 0.37 0.48 0.61 0.58 0.68 0.74 0.76 0.78 0.80 0.79 0.80 0.84 0.87 0.90 0.89 0.88 0.85 0.83 0.82 0.81 0.81 0.82 0.83 0.85 0.85 0.87 0.90 0.93 0.94 0.95 0.95 0.96 0.95 0.95 0.93 0.94 0.98 0.99 0.99 0.97 0.95 0.95 0.97 0.97 0.96 0.94 0.94 0.92 0.93 0.95 0.96 1.01 1.00 1.02 1.01 1.03 1.05 1.06 1.07 1.09
0.18 0.20 0.23 0.23 0.21 0.25 0.22 0.19 0.19 0.17 0.18 0.17 0.19 0.20 0.19 0.18 0.15 0.13 0.15 0.14 0.15 0.18 0.20 0.22 0.19 0.24 0.29 0.39 0.67 0.71 0.74 0.77 0.80 0.81 0.85 0.86 0.88 0.90 0.92 0.91 0.90 0.87 0.85 0.85 0.83 0.81 0.80 0.81 0.83 0.83 0.86 0.88 0.91 0.92 0.91 0.91 0.91 0.91 0.91 0.90 0.90 0.91 0.91 0.91 0.91 0.91 0.92 0.94 0.93 0.91 0.90 0.89 0.90 0.89 0.90 0.92 0.95 0.98 0.98 1.02 1.03 1.06 1.10 1.10 1.13 1.17
0.21 0.21 0.23 0.25 0.25 0.25 0.21 0.21 0.21 0.19 0.19 0.19 0.22 0.23 0.20 0.19 0.20 0.15 0.17 0.17 0.18 0.20 0.20 0.22 0.28 0.45 0.43 0.72 0.78 0.79 0.81 0.79 0.79 0.80 0.83 0.82 0.87 0.91 0.91 0.89 0.88 0.87 0.85 0.84 0.81 0.79 0.80 0.82 0.83 0.83 0.85 0.88 0.90 0.90 0.90 0.88 0.88 0.86 0.86 0.85 0.83 0.81 0.81 0.82 0.83 0.85 0.87 0.87 0.87 0.84 0.85 0.86 0.87 0.88 0.89 0.90 0.93 0.97 1.00 1.04 1.05 1.07 1.11 1.15 1.18 1.22
0.22 0.20 0.26 0.25 0.28 0.25 0.23 0.21 0.20 0.21 0.16 0.19 0.21 0.19 0.19 0.23 0.22 0.18 0.21 0.23 0.23 0.21 0.21 0.40 0.36 0.49 0.64 0.68 0.73 0.76 0.75 0.76 0.78 0.78 0.81 0.84 0.86 0.89 0.90 0.90 0.88 0.87 0.84 0.82 0.78 0.78 0.79 0.82 0.83 0.85 0.87 0.88 0.88 0.87 0.86 0.84 0.84 0.83 0.81 0.79 0.78 0.79 0.79 0.79 0.81 0.82 0.82 0.82 0.81 0.81 0.83 0.83 0.84 0.86 0.84 0.85 0.87 0.92 0.98 1.01 1.04 1.07 1.11 1.17 1.19 1.20
0.22 0.21 0.27 0.25 0.23 0.24 0.24 0.23 0.22 0.21 0.22 0.22 0.18 0.21 0.23 0.26 0.23 0.20 0.17 0.21 0.19 0.17 0.27 0.36 0.32 0.38 0.40 0.37 0.66 0.67 0.66 0.69 0.73 0.75 0.80 0.85 0.86 0.86 0.88 0.88 0.86 0.84 0.81 0.80 0.80 0.81 0.81 0.81 0.82 0.84 0.86 0.85 0.83 0.83 0.83 0.83 0.82 0.83 0.82 0.79 0.77 0.77 0.76 0.79 0.81 0.81 0.80 0.79 0.80 0.80 0.80 0.81 0.84 0.84 0.84 0.86 0.86 0.89 0.90 0.92 0.95 1.01 1.06 1.10 1.18 1.21
0.28 0.22 0.25 0.26 0.24 0.25 0.25 0.23 0.20 0.21 0.24 0.23 0.20 0.25 0.21 0.18 0.16 0.20 0.20 0.16 0.16 0.16 0.25 0.33 0.39 0.37 0.37 0.36 0.51 0.55 0.60 0.64 0.70 0.75 0.77 0.78 0.80 0.83 0.87 0.88 0.86 0.84 0.79 0.76 0.77 0.78 0.79 0.81 0.81 0.82 0.81 0.82 0.82 0.83 0.83 0.82 0.82 0.82 0.80 0.79 0.78 0.76 0.77 0.79 0.81 0.82 0.82 0.82 0.81 0.81 0.81 0.80 0.80 0.81 0.81 0.82 0.85 0.86 0.84 0.85 0.88 0.91 0.97 1.05 1.13 1.17
0.28 0.23 0.24 0.27 0.25 0.26 0.22 0.20 0.17 0.20 0.26 0.25 0.23 0.22 0.24 0.22 0.18 0.18 0.18 0.20 0.18 0.20 0.23 0.30 0.38 0.34 0.48 0.49 0.52 0.51 0.58 0.64 0.70 0.73 0.75 0.78 0.79 0.81 0.83 0.84 0.82 0.78 0.75 0.74 0.76 0.77 0.79 0.79 0.79 0.79 0.78 0.79 0.79 0.80 0.81 0.81 0.80 0.79 0.80 0.77 0.76 0.78 0.79 0.80 0.82 0.81 0.79 0.79 0.78 0.77 0.80 0.80 0.80 0.81 0.79 0.79 0.79 0.81 0.81 0.82 0.84 0.87 0.90 0.95 1.02 1.08
0.28 0.28 0.24 0.24 0.27 0.28 0.23 0.22 0.20 0.22 0.20 0.20 0.20 0.20 0.21 0.20 0.24 0.21 0.21 0.18 0.17 0.19 0.20 0.26 0.28 0.39 0.53 0.63 0.62 0.62 0.63 0.66 0.69 0.70 0.74 0.77 0.80 0.82 0.81 0.80 0.78 0.75 0.73 0.74 0.75 0.77 0.77 0.76 0.77 0.79 0.79 0.79 0.81 0.82 0.80 0.80 0.78 0.78 0.78 0.77 0.77 0.76 0.77 0.78 0.80 0.81 0.78 0.78 0.77 0.76 0.75 0.76 0.79 0.78 0.78 0.78 0.77 0.78 0.78 0.80 0.83 0.84 0.88 0.92 0.92 0.96
0.29 0.27 0.25 0.24 0.22 0.22 0.25 0.26 0.23 0.23 0.22 0.20 0.19 0.18 0.20 0.18 0.18 0.17 0.18 0.20 0.20 0.17 0.22 0.20 0.22 0.37 0.58 0.72 0.70 0.69 0.71 0.71 0.74 0.73 0.75 0.78 0.80 0.81 0.81 0.80 0.77 0.74 0.75 0.75 0.76 0.76 0.76 0.76 0.77 0.78 0.79 0.79 0.78 0.77 0.77 0.78 0.77 0.76 0.77 0.78 0.77 0.77 0.76 0.76 0.77 0.80 0.79 0.77 0.77 0.75 0.75 0.75 0.76 0.75 0.74 0.73 0.73 0.74 0.76 0.78 0.79 0.82 0.84 0.84 0.88 0.91
0.34 0.30 0.28 0.26 0.24 0.21 0.23 0.26 0.26 0.26 0.24 0.22 0.21 0.19 0.21 0.21 0.20 0.19 0.17 0.19 0.20 0.20 0.26 0.27 0.24 0.33 0.64 0.75 0.74 0.73 0.74 0.75 0.76 0.77 0.77 0.79 0.80 0.81 0.80 0.78 0.77 0.77 0.75 0.75 0.75 0.76 0.76 0.76 0.76 0.76 0.76 0.75 0.75 0.76 0.77 0.77 0.76 0.76 0.76 0.77 0.76 0.75 0.75 0.77 0.77 0.79 0.78 0.77 0.76 0.75 0.75 0.75 0.73 0.72 0.70 0.69 0.70 0.70 0.72 0.74 0.76 0.78 0.77 0.78 0.80 0.83
0.37 0.31 0.26 0.28 0.30 0.29 0.29 0.28 0.27 0.26 0.25 0.22 0.21 0.21 0.20 0.20 0.20 0.20 0.20 0.22 0.20 0.20 0.21 0.29 0.25 0.37 0.63 0.77 0.76 0.77 0.78 0.79 0.81 0.80 0.77 0.78 0.80 0.80 0.78 0.76 0.75 0.74 0.75 0.76 0.78 0.78 0.77 0.76 0.76 0.76 0.74 0.74 0.75 0.75 0.76 0.77 0.77 0.76 0.76 0.76 0.74 0.73 0.74 0.75 0.77 0.77 0.76 0.75 0.75 0.74 0.73 0.72 0.71 0.70 0.68 0.67 0.69 0.70 0.72 0.73 0.74 0.75 0.75 0.76 0.76 0.76
0.30 0.31 0.27 0.24 0.25 0.26 0.26 0.26 0.24 0.25 0.24 0.22 0.20 0.21 0.21 0.21 0.21 0.22 0.22 0.27 0.20 0.21 0.22 0.24 0.24 0.36 0.62 0.75 0.78 0.80 0.76 0.74 0.75 0.79 0.80 0.76 0.79 0.80 0.80 0.78 0.75 0.73 0.74 0.75 0.76 0.76 0.76 0.75 0.75 0.75 0.75 0.75 0.75 0.76 0.76 0.76 0.76 0.75 0.74 0.75 0.74 0.73 0.75 0.75 0.77 0.76 0.75 0.74 0.73 0.73 0.71 0.70 0.69 0.68 0.68 0.68 0.70 0.71 0.72 0.73 0.73 0.74 0.74 0.74 0.74 0.75
0.33 0.30 0.26 0.21 0.20 0.19 0.18 0.17 0.16 0.17 0.19 0.21 0.21 0.20 0.21 0.20 0.20 0.20 0.19 0.22 0.19 0.29 0.29 0.28 0.33 0.49 0.64 0.71 0.71 0.74 0.75 0.72 0.75 0.78 0.80 0.81 0.80 0.81 0.80 0.78 0.75 0.74 0.75 0.76 0.76 0.76 0.75 0.75 0.76 0.76 0.75 0.75 0.76 0.76 0.75 0.75 0.74 0.73 0.73 0.73 0.75 0.73 0.74 0.75 0.76 0.75 0.74 0.73 0.72 0.71 0.70 0.69 0.69 0.68 0.69 0.70 0.70 0.72 0.73 0.74 0.74 0.74 0.74 0.74 0.72 0.73
0.33 0.33 0.29 0.26 0.23 0.21 0.21 0.21 0.23 0.22 0.21 0.19 0.20 0.20 0.20 0.21 0.21 0.21 0.21 0.21 0.19 0.29 0.28 0.34 0.36 0.44 0.51 0.60 0.66 0.71 0.73 0.70 0.70 0.74 0.75 0.76 0.79 0.82 0.82 0.79 0.76 0.75 0.76 0.76 0.76 0.76 0.75 0.74 0.74 0.75 0.75 0.75 0.74 0.73 0.72 0.71 0.71 0.71 0.71 0.71 0.72 0.73 0.73 0.74 0.75 0.75 0.74 0.74 0.73 0.72 0.71 0.70 0.70 0.71 0.72 0.72 0.72 0.74 0.74 0.74 0.74 0.74 0.72 0.74 0.73 0.72
0.34 0.29 0.29 0.28 0.28 0.29 0.29 0.26 0.26 0.23 0.20 0.21 0.21 0.21 0.21 0.21 0.20 0.20 0.20 0.19 0.28 0.27 0.27 0.44 0.43 0.39 0.47 0.56 0.62 0.66 0.70 0.72 0.73 0.74 0.76 0.78 0.79 0.79 0.80 0.78 0.78 0.78 0.77 0.77 0.76 0.75 0.74 0.73 0.73 0.73 0.73 0.72 0.71 0.71 0.70 0.71 0.70 0.69 0.68 0.68 0.71 0.74 0.74 0.75 0.74 0.74 0.73 0.73 0.72 0.71 0.71 0.71 0.72 0.73 0.74 0.75 0.75 0.75 0.75 0.75 0.74 0.73 0.73 0.73 0.71 0.71
0.33 0.29 0.30 0.30 0.30 0.32 0.31 0.29 0.27 0.24 0.23 0.23 0.23 0.23 0.22 0.22 0.21 0.20 0.21 0.23 0.27 0.21 0.26 0.44 0.46 0.39 0.49 0.57 0.63 0.66 0.69 0.69 0.73 0.76 0.79 0.80 0.80 0.80 0.79 0.76 0.75 0.75 0.76 0.74 0.74 0.75 0.73 0.72 0.71 0.71 0.70 0.69 0.69 0.68 0.69 0.69 0.69 0.69 0.69 0.70 0.72 0.73 0.73 0.75 0.74 0.73 0.73 0.72 0.71 0.71 0.72 0.73 0.73 0.74 0.74 0.74 0.74 0.73 0.74 0.74 0.74 0.74 0.72 0.72 0.71 0.71
0.35 0.32 0.33 0.31 0.32 0.33 0.32 0.32 0.33 0.26 0.24 0.24 0.24 0.25 0.25 0.23 0.22 0.24 0.27 0.27 0.27 0.28 0.35 0.43 0.47 0.45 0.53 0.59 0.65 0.69 0.74 0.74 0.77 0.82 0.81 0.78 0.77 0.77 0.76 0.75 0.74 0.73 0.72 0.72 0.73 0.73 0.72 0.71 0.70 0.69 0.69 0.68 0.68 0.67 0.67 0.67 0.68 0.68 0.67 0.69 0.72 0.72 0.73 0.74 0.73 0.72 0.72 0.71 0.71 0.72 0.72 0.72 0.72 0.71 0.72 0.71 0.70 0.71 0.72 0.72 0.73 0.72 0.71 0.70 0.70 0.70
0.34 0.34 0.37 0.33 0.32 0.33 0.36 0.36 0.36 0.33 0.30 0.25 0.38 0.40 0.35 0.33 0.33 0.32 0.32 0.32 0.34 0.41 0.43 0.43 0.42 0.44 0.61 0.69 0.69 0.74 0.75 0.77 0.78 0.76 0.76 0.76 0.76 0.75 0.74 0.72 0.71 0.70 0.71 0.71 0.71 0.70 0.70 0.70 0.69 0.69 0.68 0.67 0.67 0.67 0.66 0.65 0.66 0.66 0.67 0.69 0.69 0.70 0.72 0.72 0.71 0.70 0.70 0.69 0.71 0.71 0.71 0.71 0.70 0.70 0.69 0.69 0.69 0.69 0.70 0.70 0.71 0.70 0.69 0.69 0.68 0.68
0.34 0.39 0.40 0.35 0.29 0.31 0.36 0.36 0.37 0.37 0.36 0.36 0.33 0.34 0.38 0.35 0.29 0.35 0.30 0.34 0.32 0.38 0.44 0.42 0.38 0.41 0.58 0.69 0.71 0.71 0.71 0.71 0.70 0.72 0.73 0.74 0.75 0.74 0.71 0.70 0.69 0.68 0.68 0.69 0.69 0.68 0.68 0.68 0.68 0.67 0.67 0.66 0.66 0.65 0.64 0.63 0.63 0.64 0.65 0.67 0.67 0.68 0.69 0.68 0.68 0.68 0.68 0.68 0.69 0.69 0.69 0.69 0.68 0.67 0.67 0.67 0.66 0.67 0.68 0.69 0.69 0.68 0.67 0.67 0.66 0.67
0.33 0.39 0.35 0.34 0.28 0.31 0.38 0.36 0.38 0.38 0.34 0.29 0.33 0.38 0.44 0.42 0.42 0.43 0.43 0.43 0.36 0.42 0.40 0.34 0.36 0.47 0.56 0.64 0.62 0.65 0.69 0.70 0.71 0.71 0.70 0.72 0.73 0.72 0.69 0.67 0.66 0.67 0.67 0.68 0.69 0.69 0.69 0.69 0.69 0.69 0.68 0.68 0.67 0.66 0.66 0.65 0.64 0.64 0.67 0.67 0.68 0.69 0.68 0.67 0.67 0.66 0.65 0.65 0.64 0.65 0.66 0.67 0.66 0.66 0.66 0.66 0.65 0.64 0.65 0.65 0.66 0.66 0.66 0.65 0.67 0.67
0.36 0.37 0.37 0.38 0.29 0.33 0.37 0.36 0.38 0.32 0.24 0.28 0.50 0.54 0.55 0.44 0.40 0.36 0.39 0.44 0.51 0.50 0.44 0.48 0.47 0.55 0.58 0.59 0.58 0.60 0.65 0.68 0.70 0.73 0.76 0.73 0.71 0.70 0.69 0.68 0.68 0.69 0.70 0.70 0.70 0.70 0.71 0.71 0.70 0.70 0.69 0.68 0.67 0.67 0.67 0.66 0.65 0.67 0.68 0.68 0.69 0.68 0.68 0.66 0.66 0.65 0.64 0.64 0.62 0.62 0.62 0.63 0.64 0.63 0.64 0.66 0.66 0.65 0.63 0.63 0.64 0.65 0.65 0.66 0.66 0.66
0.36 0.36 0.39 0.40 0.34 0.32 0.37 0.36 0.30 0.24 0.29 0.50 0.61 0.61 0.59 0.53 0.45 0.44 0.49 0.51 0.53 0.54 0.53 0.51 0.53 0.54 0.58 0.61 0.62 0.64 0.66 0.70 0.73 0.72 0.72 0.74 0.73 0.71 0.70 0.70 0.70 0.71 0.70 0.70 0.71 0.72 0.71 0.70 0.69 0.69 0.68 0.67 0.67 0.68 0.67 0.65 0.65 0.66 0.67 0.68 0.67 0.68 0.66 0.65 0.65 0.64 0.63 0.62 0.62 0.61 0.60 0.59 0.58 0.58 0.58 0.60 0.61 0.62 0.63 0.63 0.63 0.63 0.63 0.63 0.63 0.63
0.36 0.34 0.39 0.39 0.41 0.41 0.35 0.32 0.24 0.26 0.46 0.56 0.60 0.60 0.62 0.60 0.53 0.45 0.47 0.53 0.56 0.55 0.54 0.50 0.53 0.56 0.58 0.60 0.64 0.66 0.67 0.68 0.70 0.71 0.72 0.73 0.74 0.72 0.70 0.70 0.70 0.70 0.69 0.71 0.72 0.70 0.69 0.69 0.68 0.68 0.67 0.69 0.68 0.68 0.68 0.66 0.66 0.65 0.65 0.67 0.66 0.66 0.65 0.64 0.63 0.62 0.62 0.61 0.61 0.61 0.61 0.60 0.59 0.58 0.58 0.58 0.58 0.58 0.59 0.60 0.62 0.61 0.62 0.62 0.61 0.63
0.40 0.40 0.38 0.37 0.45 0.33 0.35 0.33 0.35 0.48 0.46 0.51 0.50 0.53 0.56 0.50 0.47 0.39 0.33 0.45 0.56 0.58 0.57 0.52 0.53 0.56 0.58 0.59 0.62 0.65 0.67 0.67 0.63 0.63 0.71 0.72 0.71 0.71 0.70 0.69 0.70 0.70 0.71 0.71 0.71 0.70 0.71 0.71 0.69 0.69 0.69 0.69 0.69 0.68 0.68 0.68 0.67 0.66 0.65 0.64 0.65 0.65 0.64 0.62 0.60 0.60 0.61 0.61 0.62 0.62 0.61 0.61 0.58 0.56 0.55 0.55 0.55 0.55 0.56 0.57 0.58 0.60 0.59 0.58 0.58 0.59
0.44 0.38 0.42 0.36 0.38 0.41 0.33 0.31 0.35 0.36 0.31 0.40 0.51 0.60 0.65 0.65 0.60 0.55 0.43 0.43 0.55 0.58 0.59 0.54 0.51 0.53 0.55 0.58 0.60 0.62 0.63 0.57 0.51 0.56 0.66 0.70 0.71 0.69 0.71 0.72 0.72 0.71 0.71 0.71 0.71 0.72 0.71 0.70 0.69 0.69 0.68 0.68 0.68 0.69 0.69 0.69 0.68 0.66 0.64 0.63 0.64 0.63 0.62 0.60 0.59 0.59 0.59 0.59 0.59 0.59 0.60 0.59 0.56 0.52 0.49 0.49 0.50 0.52 0.53 0.55 0.54 0.52 0.53 0.54 0.55 0.56
0.48 0.48 0.45 0.36 0.38 0.36 0.33 0.29 0.29 0.28 0.35 0.50 0.53 0.59 0.64 0.66 0.60 0.56 0.41 0.36 0.53 0.57 0.58 0.57 0.54 0.55 0.55 0.54 0.56 0.59 0.54 0.45 0.48 0.57 0.67 0.69 0.70 0.72 0.70 0.70 0.70 0.70 0.70 0.70 0.70 0.68 0.68 0.68 0.67 0.67 0.68 0.68 0.66 0.67 0.69 0.69 0.68 0.65 0.62 0.62 0.61 0.61 0.59 0.58 0.57 0.57 0.55 0.55 0.56 0.56 0.57 0.57 0.54 0.51 0.48 0.46 0.46 0.47 0.48 0.48 0.49 0.49 0.49 0.49 0.51 0.53
0.45 0.42 0.41 0.37 0.37 0.37 0.34 0.30 0.28 0.35 0.36 0.50 0.59 0.63 0.64 0.62 0.60 0.47 0.27 0.29 0.50 0.57 0.59 0.57 0.56 0.55 0.55 0.57 0.58 0.56 0.50 0.43 0.48 0.58 0.69 0.72 0.75 0.74 0.71 0.70 0.70 0.70 0.70 0.71 0.70 0.69 0.68 0.67 0.66 0.65 0.65 0.64 0.64 0.66 0.66 0.65 0.64 0.63 0.62 0.61 0.60 0.58 0.56 0.56 0.55 0.55 0.53 0.52 0.51 0.51 0.50 0.50 0.49 0.47 0.45 0.43 0.42 0.42 0.42 0.43 0.44 0.44 0.44 0.44 0.45 0.47
0.41 0.39 0.37 0.33 0.35 0.37 0.37 0.35 0.37 0.40 0.52 0.59 0.60 0.64 0.65 0.63 0.53 0.31 0.24 0.35 0.52 0.58 0.60 0.59 0.57 0.57 0.58 0.56 0.58 0.52 0.57 0.64 0.66 0.69 0.72 0.74 0.72 0.71 0.72 0.73 0.73 0.74 0.72 0.71 0.69 0.69 0.66 0.65 0.63 0.62 0.61 0.62 0.63 0.65 0.64 0.63 0.61 0.58 0.57 0.57 0.55 0.53 0.53 0.53 0.53 0.52 0.50 0.49 0.48 0.48 0.47 0.47 0.47 0.44 0.43 0.42 0.41 0.41 0.40 0.41 0.40 0.41 0.41 0.40 0.41 0.42
0.39 0.38 0.38 0.39 0.35 0.34 0.38 0.34 0.37 0.43 0.55 0.62 0.64 0.64 0.64 0.51 0.33 0.30 0.46 0.59 0.55 0.55 0.58 0.58 0.56 0.58 0.59 0.59 0.58 0.59 0.64 0.68 0.71 0.73 0.73 0.73 0.71 0.70 0.71 0.72 0.72 0.72 0.72 0.70 0.68 0.65 0.63 0.63 0.62 0.62 0.61 0.61 0.61 0.62 0.62 0.60 0.56 0.53 0.51 0.49 0.48 0.49 0.52 0.51 0.50 0.49 0.49 0.48 0.46 0.45 0.45 0.45 0.45 0.44 0.42 0.41 0.40 0.39 0.38 0.39 0.39 0.39 0.39 0.38 0.37 0.37
0.41 0.35 0.34 0.33 0.39 0.40 0.40 0.37 0.36 0.29 0.50 0.64 0.62 0.58 0.60 0.42 0.41 0.52 0.55 0.58 0.59 0.55 0.55 0.56 0.57 0.59 0.60 0.58 0.62 0.64 0.66 0.68 0.70 0.71 0.71 0.71 0.70 0.69 0.70 0.71 0.70 0.69 0.68 0.66 0.65 0.65 0.64 0.62 0.61 0.60 0.59 0.59 0.60 0.60 0.58 0.53 0.49 0.48 0.48 0.46 0.47 0.49 0.49 0.48 0.47 0.45 0.44 0.44 0.43 0.43 0.42 0.41 0.41 0.41 0.41 0.39 0.38 0.36 0.36 0.36 0.36 0.36 0.36 0.35 0.35 0.34
0.52 0.38 0.38 0.39 0.45 0.34 0.34 0.32 0.34 0.46 0.57 0.64 0.59 0.46 0.52 0.54 0.59 0.58 0.57 0.54 0.57 0.56 0.55 0.55 0.58 0.60 0.61 0.62 0.62 0.65 0.68 0.67 0.68 0.69 0.69 0.69 0.69 0.69 0.70 0.70 0.69 0.68 0.67 0.66 0.66 0.65 0.65 0.62 0.60 0.58 0.57 0.57 0.56 0.52 0.49 0.47 0.45 0.45 0.44 0.42 0.45 0.45 0.45 0.44 0.43 0.42 0.40 0.41 0.41 0.41 0.39 0.39 0.39 0.39 0.39 0.38 0.36 0.34 0.33 0.33 0.33 0.33 0.33 0.33 0.33 0.32
0.52 0.46 0.46 0.38 0.50 0.43 0.39 0.44 0.56 0.61 0.63 0.64 0.62 0.61 0.60 0.61 0.62 0.61 0.60 0.57 0.54 0.56 0.60 0.58 0.58 0.62 0.65 0.66 0.66 0.67 0.65 0.68 0.68 0.69 0.68 0.68 0.68 0.68 0.67 0.66 0.65 0.64 0.63 0.62 0.62 0.63 0.62 0.59 0.56 0.55 0.54 0.51 0.46 0.44 0.45 0.46 0.43 0.41 0.39 0.40 0.42 0.41 0.39 0.38 0.38 0.37 0.38 0.38 0.38 0.37 0.37 0.38 0.37 0.36 0.37 0.36 0.35 0.32 0.31 0.30 0.30 0.29 0.30 0.30 0.30 0.30
0.59 0.58 0.58 0.51 0.50 0.57 0.60 0.60 0.62 0.62 0.62 0.63 0.65 0.66 0.63 0.62 0.64 0.64 0.61 0.57 0.60 0.60 0.62 0.60 0.63 0.64 0.66 0.69 0.66 0.66 0.67 0.68 0.69 0.68 0.68 0.68 0.67 0.66 0.66 0.65 0.63 0.63 0.62 0.61 0.60 0.60 0.58 0.55 0.54 0.52 0.46 0.43 0.43 0.43 0.44 0.44 0.42 0.38 0.37 0.38 0.39 0.39 0.38 0.37 0.35 0.35 0.34 0.36 0.36 0.36 0.36 0.36 0.34 0.34 0.35 0.35 0.34 0.33 0.31 0.30 0.29 0.28 0.28 0.28 0.28 0.28
0.54 0.56 0.53 0.44 0.53 0.45 0.39 0.57 0.58 0.59 0.61 0.63 0.63 0.65 0.66 0.65 0.65 0.65 0.62 0.62 0.62 0.64 0.65 0.67 0.67 0.66 0.67 0.68 0.68 0.66 0.66 0.68 0.67 0.66 0.66 0.65 0.63 0.63 0.62 0.61 0.61 0.61 0.61 0.59 0.60 0.58 0.55 0.52 0.49 0.44 0.41 0.39 0.40 0.39 0.40 0.40 0.39 0.37 0.37 0.37 0.38 0.38 0.37 0.34 0.32 0.31 0.32 0.32 0.34 0.35 0.36 0.34 0.32 0.33 0.34 0.34 0.34 0.34 0.32 0.31 0.30 0.29 0.28 0.28 0.27 0.27
0.45 0.58 0.49 0.48 0.49 0.43 0.45 0.54 0.59 0.63 0.63 0.64 0.64 0.62 0.62 0.64 0.67 0.67 0.66 0.66 0.66 0.67 0.67 0.67 0.68 0.66 0.68 0.66 0.68 0.66 0.64 0.65 0.63 0.62 0.62 0.62 0.62 0.61 0.60 0.60 0.60 0.61 0.61 0.61 0.59 0.56 0.52 0.47 0.42 0.40 0.38 0.37 0.37 0.36 0.36 0.35 0.34 0.35 0.35 0.36 0.37 0.37 0.34 0.31 0.29 0.28 0.29 0.31 0.32 0.34 0.34 0.32 0.32 0.33 0.33 0.32 0.32 0.31 0.31 0.31 0.30 0.28 0.28 0.28 0.27 0.26
0.51 0.53 0.41 0.49 0.47 0.53 0.59 0.60 0.60 0.60 0.60 0.61 0.62 0.64 0.64 0.64 0.65 0.65 0.65 0.65 0.65 0.64 0.64 0.66 0.67 0.66 0.66 0.65 0.66 0.65 0.63 0.63 0.63 0.63 0.62 0.61 0.60 0.60 0.59 0.60 0.61 0.61 0.60 0.57 0.55 0.52 0.46 0.41 0.38 0.36 0.35 0.33 0.33 0.33 0.32 0.30 0.30 0.31 0.32 0.31 0.32 0.33 0.32 0.30 0.28 0.27 0.27 0.29 0.31 0.32 0.33 0.32 0.32 0.33 0.32 0.32 0.31 0.32 0.32 0.32 0.31 0.30 0.30 0.32 0.33 0.31
0.51 0.42 0.49 0.46 0.39 0.40 0.41 0.48 0.54 0.42 0.42 0.52 0.57 0.60 0.62 0.65 0.64 0.62 0.62 0.61 0.62 0.61 0.62 0.61 0.63 0.66 0.66 0.66 0.65 0.63 0.61 0.61 0.62 0.62 0.60 0.59 0.59 0.59 0.59 0.60 0.60 0.58 0.56 0.54 0.50 0.42 0.39 0.37 0.35 0.34 0.32 0.31 0.32 0.32 0.31 0.31 0.31 0.29 0.28 0.29 0.29 0.29 0.28 0.29 0.29 0.29 0.28 0.28 0.28 0.29 0.29 0.30 0.32 0.33 0.32 0.32 0.31 0.31 0.31 0.34 0.34 0.33 0.31 0.32 0.34 0.34
0.44 0.45 0.43 0.36 0.34 0.35 0.47 0.53 0.55 0.52 0.51 0.53 0.55 0.60 0.62 0.63 0.61 0.58 0.58 0.58 0.60 0.62 0.62 0.61 0.59 0.60 0.61 0.62 0.64 0.62 0.61 0.59 0.58 0.58 0.57 0.57 0.57 0.58 0.58 0.57 0.55 0.51 0.47 0.44 0.38 0.35 0.34 0.33 0.33 0.33 0.32 0.31 0.31 0.30 0.30 0.30 0.30 0.29 0.29 0.28 0.28 0.26 0.25 0.27 0.28 0.28 0.28 0.28 0.27 0.27 0.27 0.28 0.29 0.31 0.32 0.32 0.31 0.30 0.29 0.30 0.32 0.33 0.33 0.34 0.34 0.34
Wind_Speed
28 27 29 29 28 28 28 27 25 23 23 21 19 19 19 19 20 20 19 21 21 18 17 17 18 18 16 17 20 19 17 17 18 19 18 18 18 17 16 15 14 13 12 12 10 9 8 7 6 6 5 5 3 3 3 3 3 3 3 4 4 4 4 4 4 4 5 5 6 6 7 8 8 9 10 10 11 11 12 13 13 14 14 15 15 16
29 31 32 30 27 27 27 26 24 24 24 22 20 19 19 19 20 20 19 21 22 18 17 17 19 20 16 16 18 18 17 18 19 19 19 19 17 16 15 14 14 13 12 11 10 10 8 7 6 5 5 4 3 3 3 3 3 3 4 4 4 5 5 5 5 5 6 6 7 7 8 9 9 10 10 11 11 12 12 13 14 15 15 16 16 17
32 33 31 29 27 27 26 25 26 26 24 23 21 20 20 18 18 19 18 22 23 18 17 18 19 20 19 18 17 16 16 17 18 19 19 18 16 15 15 14 13 13 13 12 11 10 9 8 6 5 4 4 3 3 3 3 3 4 4 4 5 5 5 6 6 6 7 7 8 8 9 10 10 10 10 11 11 12 13 14 14 15 16 17 17 17
32 32 30 29 28 28 26 26 27 27 25 24 22 21 21 19 18 17 17 22 24 19 17 18 19 20 19 18 17 14 14 14 14 15 16 16 16 15 14 14 13 13 12 12 11 10 9 8 6 5 5 4 4 3 3 3 4 4 5 5 5 6 6 7 7 7 8 9 9 9 10 10 10 10 11 11 12 13 14 15 15 16 17 18 18 18
31 29 30 29 28 28 27 26 27 27 25 25 24 23 22 21 20 17 17 21 23 19 17 17 17 18 19 18 17 15 15 15 14 14 13 14 14 14 14 14 13 13 12 12 11 10 9 8 6 6 5 4 4 4 4 4 4 5 5 5 6 7 7 7 8 8 9 9 9 10 10 11 11 11 12 13 14 14 15 16 17 18 18 19 19 19
31 29 30 31 29 29 28 27 28 27 25 25 25 25 24 22 21 17 17 21 22 20 19 18 16 16 18 19 19 17 16 17 16 14 14 14 13 13 13 13 13 12 12 12 11 11 9 8 7 6 5 4 4 4 4 4 4 5 5 6 6 7 7 8 8 9 9 9 10 10 11 12 12 13 14 14 15 16 16 17 17 18 18 19 20 20
31 30 31 31 31 30 30 29 29 27 26 26 26 25 24 24 22 18 18 22 22 20 20 20 19 16 17 19 19 19 17 17 16 15 15 14 14 14 13 12 12 11 11 11 11 11 10 9 8 6 5 4 4 4 4 4 5 5 6 6 7 7 8 8 9 9 9 10 10 11 12 13 13 14 15 15 16 16 17 17 17 18 18 19 20 20
33 32 32 32 32 31 31 30 29 28 27 27 26 24 23 24 23 19 18 22 21 19 18 20 21 18 18 20 20 20 18 17 17 16 16 15 15 15 14 13 12 11 11 11 12 12 11 10 8 7 6 5 5 4 5 5 5 6 6 7 7 8 8 9 9 9 10 10 11 12 12 13 14 14 15 16 16 17 17 17 18 18 18 19 20 20
33 33 32 33 32 31 31 30 29 29 27 27 25 24 24 23 23 20 17 20 23 19 17 20 21 18 19 21 21 21 20 19 19 19 17 16 16 15 15 14 12 12 11 11 12 12 11 10 9 8 6 6 6 6 6 6 6 7 7 8 8 9 9 10 10 10 11 11 11 12 12 13 14 14 15 16 17 17 18 18 18 19 19 20 20 20
32 34 31 31 32 31 30 29 29 29 27 25 25 24 24 22 21 19 15 18 23 20 18 22 23 17 17 21 22 22 22 21 21 20 18 17 16 16 15 14 13 13 12 12 12 12 11 11 9 8 8 7 7 7 7 8 8 8 8 9 9 10 10 11 11 11 11 11 12 12 13 13 14 15 16 16 17 17 18 18 19 20 20 20 21 21
30 33 31 30 31 30 29 28 29 30 25 24 25 25 23 22 20 17 14 16 20 19 20 24 24 18 16 20 23 22 22 23 21 19 18 17 16 16 15 14 14 14 14 13 13 12 12 11 10 9 9 8 8 9 9 9 9 9 9 10 10 11 11 11 12 12 12 12 12 13 13 14 14 15 16 16 17 17 18 19 19 20 20 21 21 21
30 31 31 30 31 29 28 28 29 29 26 24 25 25 22 21 20 17 14 17 19 19 22 24 24 20 17 20 23 22 22 23 22 20 19 18 17 16 15 14 14 14 14 14 13 13 12 11 11 10 9 9 9 9 9 9 9 9 10 10 10 11 11 12 12 12 13 13 13 14 14 14 15 15 16 16 17 18 18 19 20 20 21 21 21 21
31 31 31 30 30 30 29 27 28 29 27 26 26 25 22 19 19 18 15 17 19 21 24 24 22 20 17 18 21 22 23 23 21 20 19 18 17 17 16 15 14 14 14 14 14 13 13 12 11 11 10 10 10 9 9 9 9 9 10 10 10 10 11 11 12 12 13 13 14 14 14 15 15 15 16 17 17 18 18 19 20 21 21 22 22 22
30 30 32 31 29 30 31 29 29 29 29 29 29 27 24 20 20 20 17 16 19 20 23 25 20 18 16 16 18 20 21 21 19 18 17 17 17 16 16 16 15 15 14 14 14 13 13 13 12 12 11 10 10 9 9 9 10 10 10 10 9 10 11 12 12 12 12 13 13 13 14 14 15 15 16 16 17 18 19 19 20 21 22 22 23 23
29 28 32 33 29 30 32 30 29 29 28 30 30 27 25 22 20 20 18 17 18 18 20 23 19 17 17 16 17 19 19 19 19 18 16 16 16 16 16 16 15 15 14 14 14 13 13 13 13 12 11 11 10 10 9 9 10 10 10 10 10 11 12 12 13 12 12 12 13 13 13 14 14 15 15 16 16 17 18 19 20 21 21 22 22 23
29 27 30 32 30 30 32 30 28 28 27 28 28 27 27 25 20 19 19 17 17 17 17 18 17 17 17 16 16 17 18 19 19 18 17 16 16 17 16 16 16 15 15 14 13 13 12 12 12 12 11 11 10 10 10 10 10 9 9 10 10 11 12 12 12 12 12 12 13 13 13 14 14 15 15 16 16 17 18 19 20 21 21 21 22 22
27 26 27 29 29 29 30 30 29 28 26 26 27 28 28 26 21 18 17 16 16 17 17 16 16 18 18 17 17 18 19 20 19 18 17 17 17 17 17 17 17 16 15 14 13 13 13 12 12 12 11 11 10 10 10 9 9 9 9 10 10 11 11 11 11 11 12 12 13 13 13 14 14 14 15 16 16 17 17 18 19 20 20 21 21 21
25 23 25 29 30 28 27 28 29 28 25 24 27 28 26 24 22 19 16 15 15 16 16 17 19 21 20 18 19 20 20 19 19 19 18 18 17 16 17 17 17 16 15 14 14 13 13 13 12 11 11 11 10 10 9 9 9 9 9 10 11 11 11 11 11 11 12 12 13 13 14 14 14 14 15 16 16 17 17 18 18 19 20 20 21 21
25 21 22 28 29 26 25 26 27 28 25 23 25 27 25 22 23 22 19 16 17 16 15 17 20 22 21 21 22 23 22 20 20 19 19 18 17 16 16 17 16 16 16 15 14 14 13 13 12 11 11 11 10 10 9 9 9 9 9 10 11 11 11 11 11 11 12 13 13 14 14 14 14 14 15 16 16 17 17 18 18 19 19 20 21 21
24 20 19 26 27 25 25 26 28 29 27 24 23 26 26 22 22 24 22 18 17 16 16 16 18 20 20 21 24 23 22 22 21 20 19 18 17 17 16 16 16 16 16 15 15 14 14 13 12 12 11 11 10 10 9 9 9 9 9 10 10 10 10 11 11 11 12 13 14 14 14 14 14 14 15 16 17 17 17 17 18 18 19 20 20 21
22 20 18 23 26 24 24 28 31 30 28 26 25 26 28 24 21 23 23 21 18 16 16 16 16 18 18 19 22 22 21 22 22 20 19 18 17 17 17 16 16 16 16 16 15 14 14 14 13 12 11 10 10 9 9 10 10 10 10 10 10 10 10 11 11 11 12 13 14 14 14 14 14 14 15 16 17 17 17 17 18 18 19 20 20 20
21 21 19 21 26 25 24 27 30 29 27 26 25 26 28 25 22 20 20 21 20 18 17 18 17 17 17 18 20 21 21 21 21 20 19 18 17 17 16 16 16 16 16 16 15 15 15 14 13 12 10 10 9 9 9 9 10 10 10 10 10 11 11 12 12 11 12 13 13 14 14 14 14 15 16 16 17 17 17 18 18 18 19 20 20 20
20 19 19 21 24 25 24 24 27 28 26 25 25 25 25 24 23 21 19 19 20 19 17 16 16 17 18 18 19 21 20 20 20 20 19 18 18 17 16 16 16 16 16 15 15 15 15 14 13 11 10 10 9 9 9 9 9 10 10 10 11 11 12 12 12 12 13 13 13 14 14 14 15 15 16 16 17 18 18 18 18 19 19 20 20 19
21 18 18 20 21 22 23 21 23 28 26 23 24 26 24 23 24 23 20 19 19 19 17 15 15 17 18 18 19 19 19 19 19 20 19 19 18 17 16 16 17 16 15 15 16 15 14 13 12 11 10 10 10 9 9 9 10 10 11 11 11 12 12 12 12 13 13 13 13 14 14 15 15 16 16 17 17 18 18 18 18 19 19 20 20 20
22 19 19 20 19 19 20 19 21 28 28 23 23 26 25 23 25 24 21 18 17 17 17 16 14 16 18 18 19 18 18 18 19 19 20 19 18 18 17 17 17 16 16 16 16 15 14 12 11 11 11 11 10 10 10 10 10 11 11 11 11 12 12 12 13 13 13 13 13 14 15 15 15 16 16 17 17 17 18 18 18 19 19 20 20 20
22 19 19 21 20 20 22 21 23 28 28 24 23 27 28 24 24 25 22 19 17 15 16 16 15 15 17 18 18 18 17 18 18 18 19 18 18 18 18 17 17 16 17 17 16 15 13 12 11 11 11 11 10 10 10 10 11 11 11 11 11 12 12 12 12 13 13 13 14 14 15 15 15 16 16 17 17 17 18 18 18 19 19 19 20 20
20 18 19 21 22 21 20 19 21 24 25 23 21 25 28 26 24 23 22 21 19 15 14 17 18 18 18 19 19 18 17 17 18 18 18 18 18 18 18 17 17 17 17 17 16 14 13 12 11 11 11 11 10 10 10 10 11 11 11 11 12 12 12 12 13 13 13 14 14 14 15 15 16 16 16 17 17 17 18 18 18 18 19 19 19 20
19 18 20 20 21 20 18 17 20 23 23 21 20 22 25 26 25 23 21 22 21 16 14 18 20 20 20 20 19 19 18 17 17 17 17 18 18 18 18 18 17 17 17 17 15 14 13 12 12 12 11 11 10 10 10 10 10 10 11 11 12 12 12 13 13 14 14 14 14 15 15 15 16 16 16 17 17 17 18 18 18 18 18 18 19 19
18 18 20 20 19 18 19 17 18 21 22 20 20 21 22 24 26 24 22 21 20 19 20 22 21 20 20 20 19 19 18 17 16 16 16 17 17 17 18 18 18 17 16 15 14 13 13 12 12 12 11 11 10 10 10 10 10 10 11 12 12 12 12 13 14 14 14 14 15 15 15 15 16 17 17 17 18 18 18 18 19 19 19 18 18 19
18 16 18 20 18 15 17 16 14 16 20 20 19 18 19 21 23 22 20 18 17 18 21 23 20 18 19 19 18 18 17 16 15 15 15 16 17 18 18 18 18 16 14 13 13 12 12 12 12 12 11 11 10 9 10 10 10 10 11 11 11 12 13 13 14 14 15 15 15 16 16 16 17 17 18 18 18 19 19 19 19 19 19 19 19 19
19 16 16 19 18 15 14 15 12 13 16 17 16 14 14 17 20 20 19 17 16 17 19 21 20 18 18 17 17 17 17 16 15 15 15 16 17 18 18 17 16 15 14 13 13 13 13 12 12 11 11 10 10 10 10 10 11 11 11 11 11 12 12 13 14 14 14 15 15 16 16 17 17 18 18 19 19 19 20 20 20 20 20 20 19 20
20 18 16 18 18 16 14 14 12 13 13 14 15 15 14 16 19 19 19 19 20 21 21 21 21 20 19 18 17 17 17 17 16 17 17 17 17 17 16 15 15 14 14 14 13 13 13 13 12 11 10 10 11 11 11 11 11 11 11 11 11 12 12 13 13 14 14 15 15 16 17 17 18 18 19 19 20 20 20 20 20 20 20 20 20 20
21 19 17 18 17 15 15 14 13 13 13 14 16 17 17 18 18 17 16 17 20 22 22 21 21 20 20 19 18 17 18 17 17 18 18 17 17 15 15 14 14 14 14 14 14 14 13 12 11 10 10 10 10 10 11 11 11 11 10 11 11 12 13 13 14 14 15 16 16 17 17 18 18 19 19 20 20 20 21 21 21 21 21 22 22 22
20 18 16 17 17 15 16 16 14 14 13 14 16 17 18 19 18 16 15 16 18 18 17 18 19 20 20 20 19 18 17 16 16 16 16 17 16 15 14 14 14 14 14 14 14 13 12 11 10 9 9 9 9 9 10 10 10 10 10 11 11 12 13 14 14 15 16 16 17 17 17 18 18 19 20 20 20 21 21 21 21 21 22 22 23 23
19 18 16 15 16 16 16 15 15 15 15 15 15 15 17 19 18 16 14 15 17 17 16 17 18 20 20 19 18 18 16 15 14 14 14 15 15 15 14 14 14 14 14 13 13 12 11 10 10 9 9 10 10 10 10 10 10 10 11 11 12 13 14 14 15 15 16 16 17 17 17 18 18 19 19 20 20 21 21 21 22 22 23 23 23 24
19 18 16 15 15 16 16 15 16 16 16 15 14 14 17 18 17 17 15 14 16 18 18 18 18 18 18 18 18 17 17 15 13 13 13 14 14 14 14 14 14 14 13 13 12 11 10 10 10 10 10 10 10 10 10 11 11 11 12 12 13 14 14 15 15 15 16 16 16 17 17 17 18 19 20 20 21 21 21 22 22 23 23 24 24 24
18 17 17 16 14 16 17 15 15 15 15 16 15 16 18 18 17 18 17 16 16 16 16 17 17 18 18 18 17 18 17 15 13 13 14 14 14 14 14 14 13 13 12 12 11 11 10 10 10 9 10 10 10 10 11 11 11 12 12 13 13 14 14 15 15 16 16 16 16 17 17 17 18 19 20 20 21 21 21 22 22 23 24 24 24 24
17 17 18 17 14 16 17 15 14 14 15 17 17 17 18 17 17 17 17 16 16 15 15 16 17 18 19 18 18 18 17 15 14 15 15 14 14 14 14 14 13 12 11 11 11 10 10 9 9 9 9 8 9 10 11 11 11 12 12 13 14 14 14 15 15 15 15 16 16 16 17 17 18 19 20 20 21 21 22 22 22 23 23 24 24 24
14 15 17 16 14 16 17 16 15 14 15 17 18 17 17 18 18 16 15 17 18 17 16 16 17 18 19 19 19 19 17 15 15 16 16 15 14 14 14 13 12 11 10 10 10 10 9 9 9 8 8 8 9 10 11 11 12 12 12 13 14 14 14 14 14 15 15 16 16 16 17 17 18 19 20 21 21 21 22 22 23 23 23 24 24 24
12 14 15 15 15 15 14 14 14 14 14 17 18 18 19 19 18 15 14 18 21 21 20 18 17 18 19 19 19 18 16 15 16 17 17 15 14 14 13 12 12 11 10 10 10 9 9 9 8 8 8 9 9 10 10 11 12 12 13 13 14 14 14 14 14 14 15 15 16 16 17 18 19 20 20 21 21 22 22 23 23 24 24 24 24 24
13 13 13 14 15 14 12 12 13 14 14 15 16 18 19 17 15 15 15 16 20 22 22 21 19 19 20 20 18 15 14 15 16 17 17 16 14 13 13 12 12 11 10 10 10 10 9 9 8 8 8 9 10 10 10 10 11 11 12 13 13 14 14 14 14 14 14 15 16 16 17 17 18 19 20 21 21 22 22 23 23 24 24 25 25 25
14 13 13 14 15 14 11 10 11 13 14 15 14 15 16 15 16 16 15 15 19 21 21 21 20 20 20 18 15 14 15 17 17 17 17 16 15 13 13 13 12 11 11 11 10 10 9 8 8 8 9 10 10 10 10 10 10 10 11 11 12 12 13 13 13 14 14 15 16 16 17 18 18 19 20 21 21 22 23 23 24 24 25 25 25 25
13 13 13 14 14 13 11 10 10 12 14 15 14 14 14 15 16 16 15 16 19 20 20 21 21 20 19 16 16 17 18 18 17 16 16 15 14 13 13 13 12 11 11 11 10 9 9 8 8 8 9 9 9 9 9 9 8 8 9 10 10 11 12 12 13 13 14 14 15 16 17 17 18 18 19 21 22 22 23 23 24 24 25 26 26 26
13 13 13 13 13 13 12 10 11 12 12 13 14 15 14 15 16 17 16 16 18 19 20 20 19 18 18 17 17 18 18 17 16 16 15 15 14 14 13 13 12 12 11 10 9 9 8 8 8 9 8 8 8 8 9 8 7 7 8 9 10 10 11 11 12 13 13 13 14 15 16 17 18 18 19 20 21 22 23 23 24 25 25 26 26 26
12 12 12 12 12 12 11 10 10 11 11 12 13 15 15 15 16 17 16 16 17 18 18 18 18 18 18 18 18 18 17 17 16 15 15 15 14 13 13 13 12 12 11 10 9 8 8 8 9 8 8 7 7 8 8 7 6 6 7 8 8 9 9 10 10 11 12 12 13 14 15 16 17 18 19 20 21 22 22 23 24 24 25 25 25 25
13 13 12 12 12 11 9 8 9 10 11 12 13 14 15 15 15 16 15 15 16 16 16 17 17 18 18 18 18 17 17 17 16 15 15 14 13 13 13 12 12 11 10 9 8 8 8 9 8 8 6 6 6 7 6 6 5 6 6 7 7 7 7 8 9 10 11 11 12 13 14 15 17 18 18 19 20 21 21 22 23 23 24 24 24 24
13 12 11 12 13 12 10 9 10 10 11 12 13 13 14 15 15 15 14 14 14 15 16 16 17 17 18 18 18 17 16 16 16 15 14 13 13 13 13 12 11 10 9 9 8 8 8 8 7 5 4 4 5 5 4 4 4 5 5 6 6 5 6 8 9 9 10 11 11 12 13 15 16 17 18 19 20 20 21 21 22 23 23 23 23 24
12 11 10 11 11 11 11 11 11 10 11 11 11 12 14 15 15 14 14 14 15 15 16 17 17 17 17 17 17 17 16 16 15 14 14 13 13 13 12 12 11 10 10 9 9 8 8 7 5 4 3 3 4 4 3 3 3 3 4 5 5 5 5 7 8 9 10 11 11 12 13 14 16 16 17 18 19 20 21 21 22 22 23 23 23 23
11 11 11 11 11 11 11 12 12 11 10 10 11 12 13 14 15 15 15 15 16 16 16 16 16 16 16 16 16 16 15 15 14 14 14 13 13 13 12 11 10 10 10 9 9 8 7 5 5 4 3 3 2 2 2 2 2 2 3 4 5 5 5 7 8 10 11 11 12 13 13 14 15 16 17 18 19 20 21 21 22 22 22 22 22 22
9 10 11 11 11 11 12 13 12 11 10 11 13 14 14 14 15 15 15 15 16 16 16 16 16 16 16 16 15 15 15 14 14 14 14 13 13 12 11 11 10 10 10 9 8 7 6 5 4 4 4 3 2 1 0 0 1 2 3 4 4 5 7 7 9 10 11 12 13 13 14 15 15 15 16 18 19 20 21 22 22 23 23 23 23 23
9 11 10 10 10 11 12 13 12 11 10 12 13 14 14 14 15 15 15 15 15 15 16 16 16 16 15 15 15 15 14 14 14 13 13 12 12 12 11 11 10 10 10 9 8 7 6 6 5 4 4 3 2 2 2 2 2 2 2 4 5 6 7 8 8 10 11 11 12 13 14 15 16 16 16 17 19 20 21 22 23 24 24 23 23 23
Wind_Direction
214 216 220 221 221 220 220 222 223 222 224 226 223 220 221 226 229 228 224 216 210 212 216 213 205 204 211 208 203 202 199 199 202 205 206 206 207 209 210 211 211 214 216 217 218 219 219 218 215 213 208 207 211 215 211 210 218 226 232 237 240 246 251 254 258 266 273 283 293 299 305 310 312 314 314 312 310 308 306 304 303 304 304 303 302 301
215 220 222 221 220 219 219 221 222 221 224 225 223 220 220 223 226 227 223 214 209 211 212 209 204 205 207 202 201 201 201 202 203 205 206 205 207 208 208 209 211 214 214 213 216 215 210 204 196 197 211 220 221 218 219 226 232 239 244 245 246 249 254 258 265 274 281 287 293 299 303 307 311 313 314 312 310 309 307 306 305 305 305 304 304 302
218 222 222 219 219 219 218 219 219 221 223 224 224 224 224 223 224 226 221 209 207 211 211 208 206 208 207 202 202 202 202 204 202 203 205 202 204 206 207 208 209 210 210 210 212 209 202 196 196 209 223 223 222 230 241 248 248 249 254 255 254 256 261 266 272 279 285 289 293 298 302 305 307 308 309 310 310 310 310 309 308 307 307 306 305 304
220 222 219 217 217 217 217 217 217 220 223 222 222 224 226 224 222 222 215 206 207 213 211 207 206 208 207 204 204 200 193 195 197 198 201 202 203 205 205 204 203 205 206 206 205 204 200 196 205 218 220 219 228 243 255 260 261 261 264 265 263 266 271 274 278 283 287 292 296 300 302 303 304 304 306 309 311 312 311 311 309 308 308 307 306 305
221 220 215 216 217 215 216 216 215 218 222 222 221 221 224 224 221 218 211 204 206 213 211 202 200 206 207 202 202 198 189 191 192 191 197 204 205 205 203 202 203 205 206 204 204 206 204 200 206 209 208 217 231 247 259 264 267 268 271 271 272 273 276 280 282 286 291 295 299 301 303 304 304 306 308 310 312 313 312 311 310 310 309 308 308 306
221 217 213 215 217 215 216 217 216 216 219 222 222 219 220 223 223 220 207 197 201 212 211 199 195 205 206 197 197 198 195 196 198 196 201 207 207 205 202 204 206 208 209 207 206 207 202 195 197 201 207 221 233 247 258 266 267 270 274 275 277 278 281 284 283 287 292 295 298 300 303 305 306 307 308 309 311 312 312 312 312 312 310 309 309 308
219 215 213 215 215 215 216 218 217 214 217 222 220 215 218 221 223 223 206 196 203 211 208 203 200 203 205 200 199 200 197 199 203 205 207 208 208 206 204 207 208 210 213 209 207 207 201 196 197 203 215 228 239 248 254 265 268 271 276 276 278 281 284 287 287 289 293 295 298 301 304 306 306 307 308 310 311 312 313 313 313 313 312 310 310 310
216 214 213 214 214 215 216 218 216 212 215 220 217 212 216 218 218 221 210 201 206 207 204 206 205 204 208 208 206 202 198 200 205 208 210 208 208 207 209 212 210 211 212 207 205 205 203 203 206 212 220 230 242 252 259 269 274 275 280 280 280 281 285 288 289 291 293 297 301 303 306 308 308 309 310 311 312 313 314 314 314 315 314 313 311 311
214 214 213 212 213 216 216 216 214 212 215 218 215 213 215 216 216 220 217 205 202 203 206 206 203 207 214 213 209 206 203 203 206 209 210 208 208 210 212 213 213 213 212 206 203 204 206 209 211 216 223 231 243 256 267 272 275 276 278 280 281 282 285 287 289 292 295 298 301 304 308 309 310 311 311 311 312 313 314 314 315 314 314 313 311 311
213 215 214 212 214 216 216 214 212 213 216 215 214 214 216 218 214 213 216 204 196 202 209 203 199 207 217 214 210 209 208 206 208 212 212 209 210 213 214 212 213 215 214 210 207 209 213 214 215 220 226 234 246 256 265 270 272 275 277 279 281 282 285 287 288 291 295 297 299 303 307 309 310 310 311 312 313 314 315 315 316 314 313 312 311 311
213 214 215 215 214 215 214 213 212 213 213 211 211 213 217 218 210 207 212 200 194 205 209 201 199 205 217 217 214 214 211 208 210 214 214 214 214 216 216 214 214 215 216 213 212 215 217 217 221 226 231 238 247 254 261 268 271 274 278 280 281 282 284 287 289 290 293 295 296 300 304 307 308 309 311 312 314 315 316 316 316 315 314 313 312 312
212 211 213 215 213 212 211 211 212 212 210 208 207 209 215 216 208 209 214 203 201 212 212 205 205 209 218 223 219 216 212 210 212 214 214 214 214 215 216 214 214 216 215 214 214 218 220 221 225 230 236 241 248 255 261 268 273 277 281 282 285 287 287 288 289 290 290 293 296 298 301 304 306 308 309 312 313 316 317 317 316 316 315 314 313 312
211 210 210 212 211 208 208 208 208 209 208 207 206 205 207 207 204 207 212 207 210 217 213 207 208 214 221 227 223 214 210 212 213 213 213 212 212 213 214 215 217 218 218 216 217 221 223 225 228 233 239 245 250 256 264 272 277 280 283 286 290 293 293 292 292 292 292 294 296 298 300 303 304 306 308 310 312 315 318 318 318 317 316 315 314 311
210 210 208 209 209 206 206 206 205 206 205 205 206 204 201 200 201 206 207 207 213 217 211 204 208 217 220 227 226 213 209 211 207 205 208 209 210 212 214 215 217 218 220 220 220 223 227 226 228 233 239 245 251 257 265 273 276 279 284 288 291 292 293 294 295 296 298 298 298 299 301 303 304 306 308 309 312 316 318 319 319 319 317 316 315 312
206 209 206 206 207 204 205 207 204 204 205 206 205 204 203 203 203 205 204 205 211 212 205 202 211 221 216 221 223 211 207 206 202 201 204 209 212 212 214 216 217 219 221 221 222 225 227 224 225 231 237 244 250 257 263 270 275 279 283 286 289 291 293 294 295 297 301 302 302 303 304 305 306 307 309 310 312 315 318 320 321 321 320 319 318 316
206 210 206 205 207 203 204 207 204 202 206 206 204 205 208 207 204 205 206 204 203 204 204 203 211 216 211 213 214 206 205 204 201 202 205 210 212 211 214 216 216 219 221 221 222 223 223 220 222 228 234 241 248 256 261 267 275 280 282 286 291 296 297 296 297 300 303 304 304 306 307 308 308 308 309 311 313 316 319 322 324 324 324 323 322 320
204 209 204 201 206 205 204 205 203 201 204 204 203 208 210 207 204 202 204 205 198 200 210 211 206 206 207 211 211 205 205 205 204 206 208 210 211 212 215 216 217 219 221 221 220 219 219 217 221 226 232 239 247 256 262 267 275 279 281 289 296 300 301 301 303 306 308 307 308 309 310 310 310 310 311 312 315 318 320 322 325 326 328 327 326 324
199 204 204 199 203 206 202 201 203 203 202 201 205 209 206 206 208 202 200 207 203 204 216 215 206 205 210 215 213 207 207 208 209 210 209 209 212 214 216 218 218 219 219 219 216 216 216 217 221 226 231 239 245 252 259 266 276 281 284 292 297 299 302 302 303 307 308 309 311 312 313 313 313 313 314 314 316 318 320 322 324 327 329 329 329 328
198 200 204 201 201 202 199 198 203 205 204 203 206 205 200 202 209 204 202 208 205 207 216 212 208 214 219 218 213 209 209 210 210 211 210 212 214 214 216 218 219 218 218 217 215 216 217 218 222 225 230 237 242 249 257 268 280 286 292 298 299 299 303 302 301 305 308 309 311 312 313 315 316 316 316 318 319 320 322 323 324 326 328 329 330 330
197 197 202 201 198 198 199 200 202 203 205 206 206 204 202 204 206 204 207 209 204 208 212 208 212 222 225 219 213 211 210 209 210 213 214 214 215 215 216 218 218 218 218 216 215 218 217 217 221 224 229 237 242 249 259 271 283 289 295 300 299 299 305 306 302 304 308 309 311 312 313 315 316 317 318 320 322 323 324 324 324 325 326 327 329 330
194 196 200 198 194 194 200 203 203 202 204 205 204 202 203 206 206 206 212 214 208 209 212 211 217 223 224 221 215 212 211 209 210 214 216 215 214 215 215 216 217 216 215 215 216 217 217 217 219 223 231 239 244 252 263 273 281 289 296 300 299 298 303 307 304 305 308 310 311 313 314 316 317 317 319 321 323 324 325 326 326 325 325 326 327 329
190 194 198 197 195 197 202 203 203 204 205 204 203 203 203 204 203 203 213 217 213 214 215 214 220 223 224 224 217 212 212 211 210 211 212 211 210 212 213 213 214 213 213 214 213 215 218 217 218 224 234 242 250 257 266 274 281 289 297 300 299 299 302 306 306 305 307 308 310 313 315 316 316 317 319 322 324 325 326 326 327 326 326 326 327 328
188 191 194 197 201 205 206 204 204 206 207 206 207 205 204 206 203 200 207 213 214 216 215 216 223 225 226 224 216 212 212 210 208 207 208 210 211 212 212 211 211 212 213 212 212 216 219 218 219 227 237 245 254 260 267 276 283 290 296 297 298 300 303 305 305 303 303 305 308 312 314 315 316 317 320 322 324 325 326 327 327 327 327 328 328 328
189 191 191 193 200 206 207 207 205 204 205 208 209 206 206 209 206 203 207 209 213 215 210 215 226 225 223 220 213 209 209 209 209 207 208 212 214 213 211 211 211 211 213 215 216 218 218 219 224 232 241 248 254 261 268 276 283 288 293 295 298 301 303 304 304 303 303 304 307 311 313 315 316 317 319 322 323 325 326 326 326 326 327 328 329 329
189 192 189 187 191 197 200 204 202 200 202 208 209 205 207 209 206 206 209 209 215 217 206 210 224 222 216 215 211 208 208 210 211 209 209 212 213 213 212 211 210 211 215 217 218 219 220 222 229 237 246 251 255 263 271 275 281 288 293 296 298 301 303 304 304 304 305 306 308 311 313 314 316 318 320 321 323 324 325 325 325 326 326 327 328 329
190 194 192 188 191 194 196 201 199 196 199 205 208 206 205 206 204 205 208 209 214 215 206 207 214 211 208 207 207 208 207 209 210 209 210 211 210 212 212 211 212 213 214 215 215 218 221 225 232 240 249 254 256 263 270 274 279 286 292 295 296 299 302 303 303 304 306 306 307 310 312 314 316 318 319 320 322 323 324 324 324 325 326 326 326 326
194 198 195 193 196 198 201 204 200 196 197 202 209 209 205 206 206 204 208 212 211 208 209 208 200 197 202 203 203 207 207 208 211 209 210 211 210 211 211 210 210 210 210 212 213 216 219 226 235 243 250 254 257 263 269 275 281 286 290 294 296 298 300 301 301 303 305 305 307 309 311 313 315 317 318 318 320 321 322 323 323 324 325 324 324 324
195 199 198 195 197 200 204 206 203 200 200 202 208 211 209 210 210 207 211 214 210 208 213 208 197 195 203 204 204 207 209 209 210 208 208 209 208 208 207 206 205 205 207 209 212 214 219 228 237 244 250 253 257 263 268 276 282 285 289 294 296 298 299 300 301 302 303 304 306 308 309 311 313 314 315 316 317 319 320 321 322 322 323 323 323 323
191 196 197 193 195 201 204 205 204 204 206 206 209 212 213 214 213 211 214 216 213 215 213 206 201 200 204 205 205 207 207 207 206 204 204 204 203 202 202 202 203 204 205 206 209 214 221 230 238 244 249 254 258 263 269 277 282 284 289 293 295 297 299 301 301 301 302 303 305 307 307 309 311 312 314 316 317 318 319 320 320 320 320 321 321 321
187 193 194 190 193 200 198 197 200 204 208 211 211 212 215 214 211 210 214 213 211 210 204 198 199 205 207 207 205 204 203 201 199 199 199 197 196 196 198 201 202 202 203 206 211 219 225 231 237 242 248 253 257 262 268 274 278 282 288 291 294 298 301 302 303 303 302 304 305 305 306 308 310 311 314 315 316 318 319 319 318 319 319 319 319 319
188 193 195 188 190 197 194 191 194 194 197 203 205 208 211 209 206 206 208 206 201 199 196 192 196 205 209 206 200 198 198 197 195 194 194 193 193 193 196 198 200 202 205 210 216 223 227 230 234 240 244 249 253 259 266 272 275 280 287 290 295 301 304 305 306 305 305 305 304 305 307 308 309 311 312 314 314 315 316 317 316 317 317 317 317 317
190 193 196 188 189 198 197 194 193 187 186 194 202 208 210 205 202 205 210 208 200 195 193 194 198 203 203 199 195 196 195 194 194 194 193 194 195 194 195 196 199 204 209 214 219 223 226 230 234 238 243 250 256 262 269 275 278 281 286 291 296 302 306 308 308 308 308 307 306 306 307 308 309 311 312 313 314 314 314 314 314 315 315 315 315 315
189 190 193 190 190 199 201 197 195 190 190 199 205 208 210 202 194 198 208 208 203 200 201 204 204 201 197 193 193 195 194 195 198 198 198 197 196 195 195 197 201 207 211 215 220 223 229 234 238 242 247 255 263 268 274 278 280 284 288 293 299 304 308 310 310 309 310 310 309 308 307 307 308 310 311 312 313 314 315 315 314 314 314 314 314 314
188 187 192 193 192 199 202 196 192 192 195 206 209 207 206 200 188 188 197 200 200 202 205 204 200 197 197 196 196 196 195 196 198 200 200 200 198 197 197 199 204 208 212 217 221 226 231 235 238 242 246 256 265 269 276 282 283 286 291 296 301 305 308 310 310 310 310 311 311 310 309 309 309 310 310 311 312 313 315 315 315 314 314 313 313 313
187 186 190 193 191 196 198 192 192 198 202 207 206 201 200 194 181 173 181 192 193 191 189 192 194 195 198 200 198 196 195 195 197 199 200 200 200 200 200 203 207 210 214 219 223 228 232 234 238 241 246 256 264 268 277 285 287 289 293 298 303 306 308 309 310 310 310 310 311 312 312 312 312 312 312 311 311 312 313 314 314 314 313 313 313 313
189 190 192 192 191 194 192 190 194 200 202 200 196 196 200 198 186 176 178 190 195 190 188 191 194 194 194 196 197 196 194 193 197 203 203 199 199 202 205 208 211 214 218 221 222 224 228 231 236 241 248 257 264 270 278 286 289 292 295 300 305 308 309 310 309 309 309 310 310 311 312 312 313 314 314 312 311 311 312 312 312 312 312 312 312 313
189 192 193 192 194 193 188 187 193 198 202 201 196 197 201 202 199 193 189 191 196 195 192 192 193 194 193 193 194 193 189 190 199 208 205 198 197 204 208 211 213 215 216 217 218 220 224 230 237 244 252 259 266 272 279 284 290 295 299 302 305 307 308 309 309 308 309 309 309 309 310 311 312 314 314 313 312 311 311 311 311 311 311 311 311 312
190 193 193 193 197 194 187 189 197 203 207 206 202 200 198 194 195 195 193 196 199 197 192 192 192 193 192 191 191 189 187 193 205 208 202 198 200 205 208 210 211 209 208 211 216 220 226 233 239 246 254 262 270 275 279 284 290 297 302 303 303 304 306 308 308 308 309 310 308 308 308 309 311 314 316 316 315 313 312 311 312 312 311 311 310 310
189 192 192 192 195 195 192 195 203 208 210 206 203 201 197 193 194 196 199 205 204 196 190 191 191 191 191 190 191 191 192 200 208 206 202 202 204 203 205 209 208 204 205 210 216 220 225 232 239 245 254 264 272 276 279 284 287 292 299 303 303 305 307 308 307 307 309 310 309 309 309 309 311 313 316 317 316 315 314 313 313 314 313 313 311 310
189 189 190 191 191 192 195 200 205 211 211 205 202 201 200 201 201 201 208 213 205 197 194 193 192 192 191 190 193 199 203 205 204 202 203 203 200 199 204 208 204 201 204 209 213 217 224 231 238 248 258 266 270 274 279 285 288 290 295 299 304 307 308 308 307 307 308 310 311 311 311 311 313 315 316 317 317 316 316 315 314 315 315 314 312 311
189 187 187 188 186 186 190 196 203 209 208 204 203 203 201 203 205 207 212 208 196 191 193 191 188 187 187 190 197 204 205 200 196 197 199 198 195 198 204 204 200 202 209 212 216 222 228 234 241 252 263 269 269 271 279 287 290 292 294 298 303 306 307 307 308 309 310 312 313 314 315 314 315 317 319 319 319 319 318 317 317 316 316 316 314 312
187 185 184 184 184 183 184 187 193 200 203 204 204 201 198 201 207 206 200 188 180 181 185 185 184 185 187 191 196 194 189 189 191 194 196 196 197 202 204 202 203 210 215 216 220 227 232 239 248 258 267 271 270 272 280 287 290 293 297 301 304 305 306 309 311 313 315 316 316 318 318 318 317 318 320 321 321 321 321 320 319 319 318 318 317 315
187 184 180 180 182 182 180 183 189 195 200 202 202 200 199 201 199 191 183 180 180 180 182 183 185 187 188 189 187 182 180 184 191 196 197 199 203 205 204 205 208 212 215 218 225 232 237 245 254 260 266 270 273 277 283 287 290 295 300 305 306 307 308 311 314 317 318 319 320 321 322 323 322 321 322 323 324 324 323 322 322 321 320 320 319 317
192 188 184 185 189 187 185 190 197 197 196 195 194 195 194 190 185 181 178 181 183 183 185 187 187 188 188 184 181 180 182 186 193 198 200 202 204 205 204 207 210 214 217 223 230 236 240 245 251 257 265 271 276 281 283 285 291 299 303 306 307 310 314 314 316 319 321 321 323 325 326 327 327 326 326 326 327 327 327 326 325 324 323 322 321 320
193 187 183 186 190 190 188 192 194 189 186 183 181 181 180 178 180 181 178 180 184 185 186 187 186 187 187 182 180 182 186 188 192 197 199 200 203 205 206 209 214 217 221 226 231 234 237 240 246 254 265 271 275 281 281 281 293 304 307 309 310 315 320 322 323 325 326 326 328 330 331 333 333 333 332 332 331 331 331 331 330 328 327 325 324 323
186 184 184 186 186 185 184 187 184 179 179 178 176 177 178 178 181 182 179 181 185 184 184 185 185 185 184 180 181 185 188 188 191 195 199 202 206 210 209 211 216 218 220 225 230 232 236 242 247 253 261 266 276 285 284 282 295 306 308 313 317 322 329 333 335 335 336 336 336 337 338 340 340 340 339 338 337 337 337 337 336 335 333 331 329 328
186 186 188 192 193 192 192 194 188 180 179 180 177 178 179 179 181 181 180 180 181 179 180 182 181 181 182 182 183 185 188 191 192 197 203 206 208 210 210 212 216 217 219 225 229 229 235 243 246 248 253 261 278 294 296 296 310 316 317 320 323 329 339 347 349 348 347 347 347 346 346 346 346 346 346 345 345 344 344 344 343 342 341 339 337 336
183 178 179 184 189 190 190 188 181 174 175 178 179 179 178 176 176 177 176 175 175 175 177 178 180 182 184 185 186 187 190 195 198 200 204 205 205 208 212 214 215 215 217 222 225 227 231 233 229 229 238 251 270 294 310 318 325 332 341 346 344 344 352 359 2 2 359 357 357 356 355 355 355 355 355 354 353 352 351 351 350 349 348 347 345 344
171 173 175 173 171 172 174 173 170 168 172 175 175 176 175 172 172 173 173 174 175 176 177 180 182 185 184 185 188 189 190 194 198 198 200 203 207 211 213 211 209 209 213 216 219 221 220 213 207 209 215 226 246 274 301 323 340 350 359 7 12 14 10 8 9 10 9 8 7 6 5 5 4 3 4 3 2 0 359 358 357 356 355 354 353 352
164 171 175 174 175 180 181 178 175 175 179 178 173 173 173 172 170 170 171 173 175 178 179 179 179 180 181 183 186 188 189 192 195 197 201 207 210 210 208 205 204 207 210 211 211 210 203 194 195 199 198 200 202 196 182 54 49 37 22 19 21 19 14 11 12 13 14 15 15 14 12 11 10 9 10 10 9 8 6 5 4 3 3 1 359 358
176 179 181 184 189 190 186 181 178 178 180 177 171 171 174 173 171 171 172 174 176 178 178 178 177 178 181 183 185 187 190 192 194 198 202 205 205 203 201 200 201 204 204 200 197 195 191 188 189 185 177 174 167 143 114 97 90 78 53 34 25 19 16 15 17 17 18 19 20 19 17 15 14 14 13 13 13 13 12 11 10 9 9 7 5 3